Regional Weather Roundup
Issued by NWS

Home | Current Version | Previous Version | Text Only | Print | Product List | Glossary On
Versions: 1 2 3 4 5 6 7 8 9 10 11 12 13 14 15 16 17 18 19 20 21 22 23 24 25 26 27 28 29 30 31 32 33 34 35 36 37 38 39 40 41 42 43 44 45 46 47 48 49 50
000
ASUS42 KKEY 230110
RWRKEY

FLORIDA REGIONAL WEATHER ROUNDUP FOR THE FLORIDA KEYS
NATIONAL WEATHER SERVICE KEY WEST FLORIDA
800 PM EST WED NOV 22 2017

...SOUTH FLORIDA AND THE KEYS...

CITY           SKY/WX    TMP DP  RH WIND       PRES   REMARKS
FORT MYERS     CLOUDY    74  71  91 NE3       29.92F
SW REGIONAL AP CLOUDY    75  68  78 SE6       29.93F
NAPLES         PTCLDY    72  70  93 E5        29.94R
MIAMI          PTCLDY    78  69  73 SE6       29.96R
WEST KENDALL   PTCLDY    74  68  81 E5        29.96R
HOMESTEAD      CLEAR     72  72 100 CALM      29.95R
MARATHON       CLEAR     77  70  79 E6        29.94R
KEY WEST INTL  CLEAR     77  72  84 E6        29.94R

...INTERNATIONAL WEATHER...

CITY           SKY/WX    TMP DP  RH WIND       PRES   REMARKS
NASSAU BAHAMAS MOCLDY    79  72  78 N5        29.96R
CANCUN MEXICO  PTCLDY    73  72  94 CALM      29.92R
COZUMEL MEXICO PTCLDY    73  70  88 E3        29.90R

ADJACENT COASTAL WATERS...

STATION/POSITION TIME  SKY/WX   TEMP    WIND        PRES    WAVE
                                AIR SEA DIR/SP/G            HT/PER
                 (UTC)          (F)     (DEG/KT/KT) (MB)    (FT/S)
PULASKI SHOAL LI 0100            78     110/  7/  8 1013.7R
SAND KEY         2350            78                 1013.7R
LONG KEY         NOT AVBL
MOLASSES REEF    0000            78 79   40/  4/  5 1013.9R
FOWEY ROCKS      0100            78 78   90/  9/  9 1015.0R
Buoy 42097       0030               78                N/A     1/ 3

$$



USA.gov is the U.S. government's official web portal to all federal, state and local government web resources and services.